{"data":{"norad_id":57329,"epoch":"2026-09-20T04:44:35.420352Z","epoch_age_seconds":150454,"freshness":"FRESH","line1":"1 57329U 23099B   26263.19763218  .00000401  00000+0  24099-4 0  9997","line2":"2 57329  43.0016 233.9488 0001365 266.1282  93.9414 15.27577217175828","mean_motion":15.27577217,"eccentricity":0.0001365,"inclination_deg":43.0016,"raan_deg":233.9488,"arg_perigee_deg":266.1282,"mean_anomaly_deg":93.9414,"bstar":2.4099e-5,"rev_number":17582,"period_min":94.266920452506,"perigee_km":482.12087631588,"apogee_km":483.99398239509,"semimajor_km":6861.1944293555,"source":"CELESTRAK","updated_at":"2026-09-21T09:00:33.595922Z"}}